Orbital Elements at Epoch 2459000.5 (2020-May-31.0) TDB
Reference: JPL 23 (heliocentric ecliptic J2000)
Element | Value | Uncertainty (1-sigma) | Units |
e | .09805377524480537 | 3.9637e-08 | |
a | 2.639896679384916 | 1.0964e-08 | au |
q | 2.381044843714999 | 1.0664e-07 | au |
i | .6999950437774707 | 3.3481e-06 | deg |
node | 96.84275192627301 | 0.00035624 | deg |
peri | 280.188117298152 | 0.00035681 | deg |
M | 30.17826605242855 | 1.8894e-05 | deg |
tp | 2458869.167986190695 (2020-Jan-20.66798619) | 8.2166e-05 | TDB |
period | 1566.674668757023 4.29 | 9.7603e-06 2.672e-08 | d yr |
n | .2297860603603291 | 1.4316e-09 | deg/d |
Q | 2.898748515054832 | 1.2039e-08 | au |
|
| | Orbit Determination Parameters
Additional Information
|